星链-4214 (STARLINK-4214 )

导读

STARLINK-4214是美国SpaceX公司星链(Starlink)星座的第二代低轨通信卫星,于2022年6月17日发射入轨。它依托星链星座部署,旨在为全球偏远地区、海洋和极地等场景提供低延迟高速宽带互联网服务。作为星链大规模组网的组成部分,该卫星大概率搭载激光通信终端,可实现星间高速互联,支撑天地一体化网络构建,是SpaceX推进全球卫星互联网覆盖计划的重要节点。

Basic Information
目录编号:
52877
目录名称:
STARLINK-4214
国际标识:
2022-062AZ
轨道中心:
EARTH
卫星名称:
星链-4214
卫星全名:
星链-4214 (STARLINK-4214 )
卫星状态:
在轨 (已飞行1541 天)
发射日期:
2022-06-17 UTC
国别 :
美国 (US)
星等 :
--
Orbit Information
数据来源 国际轨道数据
星历时间: 2026-09-05T03:17:57+0800
12小时前
查看轨道信息
半长轴: 6840.878km
偏心率: 0.0001063
轨道倾角: 53.160°
近地点辐角 87.060°
升交点赤经 279.293°
平近点角 273.052°
近地点: 462.013km
远地点: 463.469km
周期: 93.849分钟
每日圈数: 15.343873
Detailed Information
固有亮度:
5
最大亮度:
2.5
卫星平台:
Starlink v1.5
覆盖范围:
全球
运营商:
太空探索技术公司
运营商所在国:
美国
制造商(研发单位):
太空探索技术公司
制造商所在国:
美国
使用方式:
暂无
Satellite Introduction
星链(Starlink)计划是由太空探索技术公司(SpaceX)提出的一个巨型低轨卫星互联网星座项目,计划在2019年至2024年间在太空搭建由约1.2万颗卫星组成的“星链”网络,其中1584颗将部署在地球上空550千米处的近地轨道,并从2020年开始工作。该卫星仍在工作。
2D Orbit Map
3D Orbit Map
Orbit Altitude Analysis Chart
Orbit Inclination Analysis Chart
Orbit Comprehensive Analysis Chart
View Comprehensive Chart
Conjunction Data List
Event ID Objects TCA Miss Dist (km) Collision Risk Probability Collision Risk Index (CRI) Action
CDM_260906-204205-020005-287721
2026-09-06T
20:42:00+0000
2.564 km
极远距离
1.422393E-6 低风险 0.38
CDM_260906-125705-261805-287721
2026-09-06T
12:57:15+0000
2.861 km
极远距离
1.108399E-6 低风险 0.36